Weather History for Lexington, KY

Change the Weather History Date:

Friday, February 1, 2013

  Actual Average Record
Temperature  
Mean Temperature 13 °F 34 °F  
Max Temperature 20 °F 42 °F 67 °F (1911)
Min Temperature 5 °F 26 °F -5 °F (1945)
Degree Days  
Heating Degree Days 52 31  
Month to date heating degree days 52 31  
Since 1 July heating degree days 2731 2814  
Cooling Degree Days 0 0  
Month to date cooling degree days 0 0  
Year to date cooling degree days 0 0  
Moisture  
Dew Point 5 °F    
Average Humidity 76    
Maximum Humidity 91    
Minimum Humidity 61    
Precipitation  
Precipitation T in 0.12 in 1.73 in (1981)
Month to date precipitation T 0.12  
Year to date precipitation 4.46 3.32  
Snow  
Snow T in 0.20 in 6.10 in (1966)
Month to date snowfall T 0.2  
Since 1 July snowfall 5.9 6.9  
Snow Depth 2.00 in    
Sea Level Pressure  
Sea Level Pressure 30.34 in    
Wind  
Wind Speed 10 mph (WSW)    
Max Wind Speed 29 mph    
Max Gust Speed 36 mph    
Visibility 10 miles    
Events Snow    
T = Trace of Precipitation, MM = Missing Value Source: NWS Daily Summary

Daily Weather History Graph

Daily Weather History Graph

Search for Another Location

Airport:

Trip Planner

Search our weather history database for the weather conditions in past years. The results will help you decide how hot, cold, wet, or windy it might be!

Date:

Astronomy

Feb. 01, 2013 Rise Set
Actual Time 7:42 AM EST 6:01 PM EST
Civil Twilight 7:14 AM EST 6:29 PM EST
Nautical Twilight 6:43 AM EST 7:01 PM EST
Astronomical Twilight 6:12 AM EST 7:32 PM EST
Moon No Moon Rise 10:21 AM EST (2/1)
Length of Visible Light 11h 14m
Length of Day
10h 19m
Waning Gibbous, 70% of the Moon is Illuminated
Feb 1
Waning Gibbous
Feb 3
Last Quarter
Feb 10
New
Feb 17
First Quarter
Feb 25
Full

Hourly Weather History & Observations

Time (EST) Temp. Windchill Dew Point Humidity Pressure Visibility Wind Dir Wind Speed Gust Speed Precip Events Conditions
12:08 AM 19.4 °F 5.0 °F 17.6 °F 93% 30.04 in 3.0 mi WNW 16.1 mph 21.9 mph N/A Snow Light Snow
12:20 AM 19.4 °F 4.5 °F 12.2 °F 74% 30.05 in 9.0 mi WNW 17.3 mph 28.8 mph 0.00 in   Overcast
12:30 AM 19.4 °F 2.5 °F 10.4 °F 68% 30.06 in 7.0 mi WNW 23.0 mph 35.7 mph 0.00 in Snow Light Snow
12:41 AM 17.6 °F 1.3 °F 8.6 °F 68% 30.07 in 9.0 mi WNW 19.6 mph 32.2 mph 0.00 in   Mostly Cloudy
12:54 AM 18.0 °F 0.9 °F 7.0 °F 62% 30.12 in 10.0 mi WNW 21.9 mph 26.5 mph 0.00 in   Partly Cloudy
1:54 AM 14.0 °F -3.9 °F 6.1 °F 71% 30.18 in 10.0 mi West 20.7 mph 29.9 mph N/A   Overcast
2:54 AM 12.0 °F -3.4 °F 3.9 °F 70% 30.25 in 10.0 mi WNW 13.8 mph 24.2 mph N/A   Overcast
3:54 AM 10.0 °F -4.5 °F 1.0 °F 67% 30.28 in 10.0 mi WNW 11.5 mph - N/A   Scattered Clouds
4:54 AM 10.0 °F -4.5 °F -0.0 °F 64% 30.30 in 10.0 mi WNW 11.5 mph 19.6 mph N/A   Clear
5:54 AM 8.1 °F -6.2 °F -0.9 °F 67% 30.32 in 10.0 mi West 10.4 mph - N/A   Clear
6:54 AM 7.0 °F -5.7 °F -2.0 °F 67% 30.36 in 10.0 mi WNW 8.1 mph 18.4 mph N/A   Clear
7:54 AM 6.1 °F -6.8 °F -2.0 °F 69% 30.40 in 10.0 mi WNW 8.1 mph - N/A   Clear
8:54 AM 7.0 °F -9.1 °F -2.0 °F 67% 30.42 in 10.0 mi West 12.7 mph - N/A   Clear
9:54 AM 9.0 °F -4.2 °F -0.9 °F 64% 30.45 in 10.0 mi West 9.2 mph 18.4 mph N/A   Clear
10:54 AM 10.0 °F -3.7 °F 1.0 °F 67% 30.47 in 10.0 mi West 10.4 mph - N/A   Clear
11:54 AM 12.9 °F -0.2 °F 3.0 °F 65% 30.48 in 10.0 mi WSW 10.4 mph - N/A   Clear
12:54 PM 15.1 °F 2.5 °F 5.0 °F 64% 30.47 in 10.0 mi WSW 10.4 mph - N/A   Clear
1:54 PM 16.0 °F 3.6 °F 5.0 °F 62% 30.45 in 10.0 mi WSW 10.4 mph - N/A   Clear
2:54 PM 17.1 °F 6.6 °F 6.1 °F 62% 30.43 in 10.0 mi SW 8.1 mph - N/A   Scattered Clouds
3:54 PM 18.0 °F 7.7 °F 7.0 °F 62% 30.43 in 10.0 mi SW 8.1 mph - N/A   Partly Cloudy
4:54 PM 18.0 °F 7.7 °F 7.0 °F 62% 30.42 in 10.0 mi SW 8.1 mph - N/A   Clear
5:54 PM 17.1 °F 7.6 °F 7.0 °F 65% 30.43 in 10.0 mi SW 6.9 mph - N/A   Clear
6:54 PM 15.1 °F 6.4 °F 6.1 °F 68% 30.43 in 10.0 mi SW 5.8 mph - N/A   Clear
7:54 PM 15.1 °F 9.4 °F 6.1 °F 68% 30.43 in 10.0 mi SSW 3.5 mph - N/A   Clear
8:54 PM 14.0 °F 5.1 °F 7.0 °F 74% 30.43 in 10.0 mi South 5.8 mph - N/A   Clear
9:54 PM 14.0 °F 6.5 °F 6.1 °F 71% 30.40 in 10.0 mi SSE 4.6 mph - N/A   Clear
10:54 PM 12.9 °F 5.2 °F 8.1 °F 81% 30.40 in 10.0 mi South 4.6 mph - N/A   Clear
11:54 PM 15.1 °F 7.7 °F 9.0 °F 77% 30.38 in 10.0 mi South 4.6 mph - N/A   Clear